This is the latest recevied weather packets stored in our database for station/object N7JP. If no packets are shown the sender has not sent any weather packets the latest 10 day(s).
| Time | Temp. | Humidity | Pressure | Rain* | Wind** | Luminosity | Snow |
|---|---|---|---|---|---|---|---|
| 1777865252 | 17.78° C | 63% | 1003.9 hPa | 0 mm | - | - | - |
| 1777864350 | 18.89° C | 62% | 1003.9 hPa | 0 mm | - | - | - |
| 1777863446 | 19.44° C | 56% | 1004.1 hPa | 0 mm | - | - | - |
| 1777862547 | 20.56° C | 54% | 1004.1 hPa | 0 mm | - | - | - |
| 1777861621 | 21.11° C | 48% | 1004.2 hPa | 0 mm | - | - | - |
| 1777860722 | 21.67° C | 51% | 1004.3 hPa | 0 mm | - | - | - |
| 1777859819 | 22.22° C | 51% | 1004.4 hPa | 0 mm | - | - | - |
| 1777858904 | 22.78° C | 45% | 1004.5 hPa | 0 mm | - | - | - |
| 1777858001 | 22.78° C | 42% | 1004.6 hPa | 0 mm | - | - | - |
| 1777857072 | 23.33° C | 42% | 1004.7 hPa | 0 mm | - | - | - |
| 1777856174 | 24.44° C | 44% | 1004.9 hPa | 0 mm | - | - | - |
| 1777855274 | 24.44° C | 44% | 1005.1 hPa | 0 mm | - | - | - |
| 1777854371 | 23.89° C | 44% | 1005.1 hPa | 0 mm | - | - | - |
| 1777853470 | 23.33° C | 46% | 1005.2 hPa | 0 mm | - | - | - |
| 1777852569 | 23.33° C | 50% | 1005.3 hPa | 0 mm | - | - | - |
| 1777851660 | 23.33° C | 47% | 1005.5 hPa | 0 mm | - | - | - |
| 1777850751 | 23.33° C | 48% | 1005.6 hPa | 0 mm | - | - | - |
| 1777849822 | 23.89° C | 48% | 1005.8 hPa | 0 mm | - | - | - |
| 1777848924 | 24.44° C | 47% | 1006 hPa | 0 mm | - | - | - |
| 1777848014 | 23.89° C | 50% | 1006.3 hPa | 0 mm | - | - | - |
| 1777847112 | 23.33° C | 50% | 1006.4 hPa | 0 mm | - | - | - |
| 1777846210 | 22.78° C | 51% | 1006.7 hPa | 0 mm | - | - | - |
| 1777845309 | 22.78° C | 53% | 1006.9 hPa | 0 mm | - | - | - |
| 1777844390 | 22.78° C | 51% | 1007.1 hPa | 0 mm | - | - | - |
| 1777843488 | 22.78° C | 51% | 1007.2 hPa | 0 mm | - | - | - |
* Rain latest hour (hover to see other rain measurements)
** Current wind speed in m/s (hover to see current wind gust speed)